• In Lithuania
  • List of Countries
  • For 7 days
  • Water Temperature
  • Satellite Maps
  • Weather Map
  • Weather Widgets
  • user-avatar
    Login

    Hourly Weather Bujumbura

    Today, 18 December, Monday

    Time Temperature Precipitation Wind Pressure Humidity
    00:00 +24°C° 0.3 mm 1 mps 691 mmHg 82%
    01:00 +24°C° 0.3 mm 1 mps 691 mmHg 82%
    02:00 +24°C° 0 mm 1 mps 691 mmHg 82%
    03:00 +23°C° 0.1 mm 1 mps 691 mmHg 83%
    04:00 +23°C° 0.1 mm 1 mps 691 mmHg 83%
    05:00 +23°C° 0.1 mm 1 mps 691 mmHg 83%
    06:00 +24°C° 0.2 mm 1 mps 691 mmHg 79%
    07:00 +26°C° 0.2 mm 1 mps 692 mmHg 75%
    08:00 +27°C° 0 mm 1 mps 692 mmHg 71%
    09:00 +28°C° 0.3 mm 1 mps 692 mmHg 68%
    10:00 +29°C° 0.3 mm 1 mps 691 mmHg 65%
    11:00 +31°C° 0.3 mm 2 mps 691 mmHg 62%
    12:00 +31°C° 0.3 mm 1 mps 691 mmHg 61%
    13:00 +32°C° 0.3 mm 1 mps 690 mmHg 61%
    14:00 +32°C° 0.3 mm 1 mps 690 mmHg 60%
    15:00 +31°C° 0.8 mm 1 mps 689 mmHg 63%
    16:00 +30°C° 0.8 mm 1 mps 689 mmHg 67%
    17:00 +29°C° 0.8 mm 1 mps 689 mmHg 70%
    18:00 +28°C° 1 mm 1 mps 689 mmHg 75%
    19:00 +26°C° 1 mm 1 mps 690 mmHg 80%
    20:00 +23°C° 1 mm 0 mps 690 mmHg 85%
    21:00 +23°C° 1.1 mm 0 mps 690 mmHg 86%
    22:00 +23°C° 1.1 mm 0 mps 691 mmHg 87%
    23:00 +22°C° 1.1 mm 0 mps 691 mmHg 89%

    Tomorrow, 19 December, Tuesday

    Time Temperature Precipitation Wind Pressure Humidity
    00:00 +24°C° 1.2 mm 1 mps 691 mmHg 89%
    01:00 +24°C° 1.2 mm 1 mps 690 mmHg 90%
    02:00 +24°C° 1.2 mm 1 mps 690 mmHg 91%
    03:00 +24°C° 1.4 mm 1 mps 690 mmHg 91%
    04:00 +24°C° 1.4 mm 1 mps 690 mmHg 91%
    05:00 +24°C° 1.4 mm 1 mps 690 mmHg 91%
    06:00 +24°C° 0.6 mm 1 mps 690 mmHg 90%
    07:00 +24°C° 0.6 mm 1 mps 691 mmHg 88%
    08:00 +25°C° 0.6 mm 1 mps 691 mmHg 87%
    09:00 +26°C° 0.3 mm 1 mps 691 mmHg 82%
    10:00 +27°C° 0.3 mm 1 mps 691 mmHg 78%
    11:00 +28°C° 0.3 mm 1 mps 691 mmHg 73%
    12:00 +29°C° 0.2 mm 1 mps 691 mmHg 69%
    13:00 +30°C° 0.2 mm 1 mps 690 mmHg 66%
    14:00 +32°C° 0.2 mm 1 mps 690 mmHg 62%
    15:00 +31°C° 0.7 mm 1 mps 690 mmHg 65%
    16:00 +30°C° 0.7 mm 1 mps 689 mmHg 68%
    17:00 +29°C° 0.7 mm 1 mps 689 mmHg 72%
    18:00 +28°C° 1.1 mm 1 mps 690 mmHg 77%
    19:00 +26°C° 1.1 mm 1 mps 690 mmHg 83%
    20:00 +24°C° 1.1 mm 1 mps 691 mmHg 89%
    21:00 +24°C° 0.9 mm 1 mps 691 mmHg 90%
    22:00 +22°C° 0.9 mm 0 mps 691 mmHg 91%
    23:00 +22°C° 0.9 mm 0 mps 692 mmHg 92%

    Day after tomorrow, 20 December, Wednesday

    Time Temperature Precipitation Wind Pressure Humidity
    00:00 +22°C° 0.2 mm 0 mps 691 mmHg 92%
    01:00 +21°C° 0.2 mm 0 mps 691 mmHg 92%
    02:00 +23°C° 0.2 mm 1 mps 690 mmHg 92%
    03:00 +23°C° 0 mm 1 mps 690 mmHg 91%
    04:00 +23°C° 0 mm 1 mps 690 mmHg 91%
    05:00 +22°C° 0 mm 1 mps 690 mmHg 90%
    06:00 +24°C° 0 mm 1 mps 691 mmHg 85%
    07:00 +25°C° 0 mm 1 mps 692 mmHg 79%
    08:00 +27°C° 0 mm 1 mps 692 mmHg 74%
    09:00 +28°C° 0.2 mm 1 mps 692 mmHg 69%
    10:00 +30°C° 0.2 mm 1 mps 692 mmHg 65%
    11:00 +31°C° 0.2 mm 2 mps 692 mmHg 60%
    12:00 +31°C° 0.8 mm 2 mps 691 mmHg 63%
    13:00 +31°C° 0.8 mm 2 mps 690 mmHg 66%
    14:00 +30°C° 0.8 mm 2 mps 690 mmHg 69%
    15:00 +30°C° 1.2 mm 2 mps 689 mmHg 72%
    16:00 +29°C° 1.2 mm 1 mps 689 mmHg 76%
    17:00 +28°C° 1.2 mm 1 mps 689 mmHg 80%
    18:00 +27°C° 0.8 mm 1 mps 690 mmHg 84%
    19:00 +26°C° 0.8 mm 1 mps 691 mmHg 87%
    20:00 +25°C° 0.8 mm 1 mps 691 mmHg 90%
    21:00 +24°C° 0.2 mm 1 mps 692 mmHg 91%
    22:00 +24°C° 0.2 mm 1 mps 692 mmHg 91%
    23:00 +22°C° 0.2 mm 0 mps 692 mmHg 92%

    21 December, Thursday

    Time Temperature Precipitation Wind Pressure Humidity
    00:00 +23°C° 0 mm 1 mps 692 mmHg 92%
    01:00 +23°C° 0 mm 1 mps 691 mmHg 91%
    02:00 +22°C° 0 mm 1 mps 691 mmHg 91%
    03:00 +22°C° 0 mm 1 mps 691 mmHg 91%
    04:00 +22°C° 0 mm 1 mps 691 mmHg 90%
    05:00 +22°C° 0 mm 1 mps 691 mmHg 89%
    06:00 +23°C° 0 mm 1 mps 692 mmHg 83%
    07:00 +25°C° 0 mm 1 mps 692 mmHg 77%
    08:00 +27°C° 0 mm 1 mps 693 mmHg 70%
    09:00 +28°C° 0 mm 1 mps 693 mmHg 64%
    10:00 +30°C° 0 mm 1 mps 693 mmHg 57%
    11:00 +32°C° 0 mm 2 mps 693 mmHg 51%
    12:00 +32°C° 0.3 mm 2 mps 692 mmHg 53%
    13:00 +32°C° 0.3 mm 2 mps 691 mmHg 55%
    14:00 +32°C° 0.3 mm 2 mps 690 mmHg 57%
    15:00 +31°C° 0.4 mm 2 mps 690 mmHg 61%
    16:00 +30°C° 0.4 mm 1 mps 690 mmHg 66%
    17:00 +29°C° 0.4 mm 1 mps 690 mmHg 70%
    18:00 +27°C° 0.5 mm 1 mps 690 mmHg 76%
    19:00 +26°C° 0.5 mm 1 mps 691 mmHg 82%
    20:00 +24°C° 0.5 mm 1 mps 691 mmHg 88%
    21:00 +23°C° 0.1 mm 1 mps 692 mmHg 88%
    22:00 +23°C° 0.1 mm 1 mps 692 mmHg 89%
    23:00 +23°C° 0.1 mm 1 mps 692 mmHg 89%

    22 December, Friday

    Time Temperature Precipitation Wind Pressure Humidity
    00:00 +22°C° 0 mm 1 mps 692 mmHg 88%
    01:00 +22°C° 0 mm 1 mps 691 mmHg 88%
    02:00 +22°C° 0 mm 1 mps 691 mmHg 87%
    03:00 +22°C° 0 mm 1 mps 691 mmHg 86%
    04:00 +22°C° 0 mm 1 mps 691 mmHg 85%
    05:00 +21°C° 0 mm 1 mps 691 mmHg 84%
    06:00 +23°C° 0 mm 1 mps 692 mmHg 78%
    07:00 +25°C° 0 mm 1 mps 692 mmHg 71%
    08:00 +27°C° 0 mm 1 mps 693 mmHg 65%
    09:00 +29°C° 0 mm 1 mps 693 mmHg 57%
    10:00 +31°C° 0 mm 1 mps 693 mmHg 49%
    11:00 +34°C° 0 mm 2 mps 692 mmHg 41%
    12:00 +34°C° 0 mm 2 mps 692 mmHg 41%
    13:00 +35°C° 0 mm 2 mps 691 mmHg 41%
    14:00 +34°C° 0 mm 1 mps 690 mmHg 41%
    15:00 +33°C° 0.1 mm 1 mps 690 mmHg 46%
    16:00 +32°C° 0.1 mm 1 mps 690 mmHg 50%
    17:00 +31°C° 0.1 mm 1 mps 689 mmHg 54%
    18:00 +29°C° 0.1 mm 1 mps 690 mmHg 63%
    19:00 +26°C° 0.1 mm 1 mps 690 mmHg 71%
    20:00 +24°C° 0.1 mm 1 mps 690 mmHg 79%
    21:00 +24°C° 0 mm 1 mps 690 mmHg 80%
    22:00 +23°C° 0 mm 1 mps 691 mmHg 81%
    23:00 +21°C° 0 mm 0 mps 691 mmHg 82%

    23 December, Saturday

    Time Temperature Precipitation Wind Pressure Humidity
    00:00 +23°C° 0 mm 1 mps 690 mmHg 82%
    01:00 +23°C° 0 mm 1 mps 690 mmHg 82%
    02:00 +22°C° 0 mm 1 mps 690 mmHg 82%
    03:00 +22°C° 0 mm 1 mps 690 mmHg 82%
    04:00 +22°C° 0 mm 1 mps 690 mmHg 82%
    05:00 +22°C° 0 mm 1 mps 690 mmHg 82%
    06:00 +24°C° 0 mm 1 mps 691 mmHg 75%
    07:00 +26°C° 0 mm 1 mps 691 mmHg 69%
    08:00 +28°C° 0 mm 1 mps 692 mmHg 62%
    09:00 +30°C° 0 mm 1 mps 692 mmHg 55%
    10:00 +32°C° 0 mm 1 mps 692 mmHg 48%
    11:00 +35°C° 0 mm 2 mps 691 mmHg 41%
    12:00 +35°C° 0 mm 2 mps 691 mmHg 41%
    13:00 +34°C° 0 mm 1 mps 690 mmHg 41%
    14:00 +34°C° 0 mm 1 mps 690 mmHg 41%
    15:00 +33°C° 0.2 mm 1 mps 689 mmHg 45%
    16:00 +32°C° 0.2 mm 1 mps 689 mmHg 50%
    17:00 +31°C° 0.2 mm 1 mps 689 mmHg 54%
    18:00 +29°C° 0.1 mm 1 mps 689 mmHg 61%
    19:00 +27°C° 0.1 mm 1 mps 689 mmHg 69%
    20:00 +22°C° 0.1 mm 0 mps 690 mmHg 76%
    21:00 +22°C° 0 mm 0 mps 690 mmHg 76%
    22:00 +22°C° 0 mm 0 mps 690 mmHg 77%
    23:00 +21°C° 0 mm 0 mps 690 mmHg 77%
    Show more